sat.trackr.live / text

‹ back to catalog

AEROCUBE 5C

NORAD 40965 · 2015-058B

PAYLOAD ACTIVE UNKNOWN

§ Identity

Operator
Country
US
Launch date
2015-10-08
Launch site
AFWTR
Launch vehicle
Mass (kg)
RCS (m²)

Purposes: tech_demo

External: N2YO · Heavens-Above · Gunter

§ Orbital elements

Epoch: 2026-09-11T14:09:10.134432Z

Period
96.52 min
Inclination
64.7678°
Eccentricity
0.0137348
Mean motion
14.91854348 rev/d
Perigee alt
496.4 km
Apogee alt
687.9 km
Semi-major
6,970.3 km
B*
1.1764e-4
RAAN
353.6988°
Arg perigee
30.6239°
Mean anomaly
330.2799°
Rev number
37,854

§ Raw data

AEROCUBE 5C1 40965U 15058B   26254.58970063  .00001243  00000+0  11764-3 0  99912 40965  64.7678 353.6988 0137348  30.6239 330.2799 14.91854348378542

JSON: /api/v1/satellites/40965 · /tle

For live sub-satellite position, see the globe view (requires WebGL).

§ Visibility from observer

Set your observer location to see the next 7 days of passes ≥ 10°. The values pass through the URL so the page stays shareable.

No JS? Fill the form by hand. The geolocation button needs JavaScript.